Flag for U.S.A. Weather past 2 weeks in Portsmouth, Virginia, U.S.A.

Now
88 °F

Scattered clouds.


Feels Like: 89 °F
Forecast: 71 / 86 °F
Wind: 12 mph from Southeast

Location: Norfolk Naval Air Station

Current Time: May 29, 2015 at 5:33:46 PM

Latest Report: May 29, 2015 at 4:59 PM


Visibility: 10 mi

Pressure: 30.21 "Hg

Humidity: 45%

Dew point: 64 °F

Location of PortsmouthLocation

Historic Weather in Portsmouth — Graph

°F

Portsmouth temperature yesterday

Maximum temperature yesterday: 90 °F (at 2:59 PM)
Minimum temperature yesterday: 75 °F (at 4:59 AM)
Average temperature yesterday: 81 °F

Past Weeks' High & Low Weather Summary

 TemperatureHumidityPressure
High94 °F (May 18, 3:59 PM)82% (May 19, 5:59 AM)30.47 "Hg (May 19, 5:59 AM)
Low56 °F (May 15, 2:59 AM)32% (May 25, 2:59 PM)29.80 "Hg (May 21, 3:59 PM)
Average76 °F56%30.19 "Hg
* Reported May 14 3:59 PM — May 29 3:59 PM, Portsmouth, Weather by CustomWeather, © 2015

Note: Actual official high and low records may vary slightly from our data, if they occured in-between our weather recording intervals... More about our weather records

Advertising

Portsmouth weather history for previous 24 hours

 ConditionsComfort  
Time TempWeatherWind HumidityBarometerVisibility
3:59 PM
Fri, May 29
90 °FScattered clouds.8 mph42%30.22 "Hg10 mi
2:59 PM88 °FScattered clouds.13 mph46%30.24 "Hg10 mi
1:59 PM88 °FPassing clouds.14 mph46%30.25 "Hg10 mi
12:59 PM86 °FPassing clouds.9 mph51%30.26 "Hg10 mi
11:59 AM85 °FScattered clouds.10 mph51%30.27 "Hg10 mi
10:59 AM86 °FPassing clouds.5 mph49%30.27 "Hg10 mi
9:59 AM83 °FScattered clouds.5 mph50%30.27 "Hg10 mi
8:59 AM80 °FPartly sunny.5 mph54%30.27 "Hg10 mi
7:59 AM78 °FScattered clouds.7 mph60%30.26 "Hg10 mi
6:59 AM76 °FPartly sunny.5 mph67%30.24 "Hg10 mi
5:59 AM75 °FPassing clouds.No wind69%30.23 "Hg10 mi
4:59 AM75 °FPassing clouds.5 mph66%30.23 "Hg10 mi
3:59 AM76 °FPassing clouds.5 mph64%30.22 "Hg10 mi
2:59 AM76 °FPassing clouds.8 mph64%30.22 "Hg10 mi
1:59 AM77 °FPassing clouds.9 mph62%30.23 "Hg10 mi
12:59 AM77 °FPassing clouds.7 mph62%30.23 "Hg10 mi
11:59 PM
Thu, May 28
79 °FPassing clouds.7 mph60%30.23 "Hg10 mi
10:59 PM79 °FPassing clouds.5 mph65%30.23 "Hg10 mi
9:59 PM80 °FPassing clouds.6 mph64%30.21 "Hg10 mi
8:59 PM81 °FScattered clouds.7 mph65%30.21 "Hg10 mi
7:59 PM83 °FBroken clouds.7 mph63%30.19 "Hg10 mi
6:59 PM85 °FBroken clouds.8 mph61%30.18 "Hg10 mi
5:59 PM83 °FBroken clouds.8 mph63%30.17 "Hg10 mi
Weather by CustomWeather, © 2015

See weather overviewHow to use our weather pages